Terminal Aerodrome Forecast
Issued by NWS Chicago, IL

Home | Current Version | Previous Version | Text Only | Print | Product List | Glossary On
Versions: 1 2 3 4 5 6 7 8 9 10 11 12 13 14 15 16 17 18 19 20 21 22 23 24 25 26 27 28 29 30
000
FTUS43 KLOT 240900 AAA
TAFRFD
TAF AMD
KRFD 240905Z 2409/2506 11012KT P6SM BKN090
     FM241300 12016G22KT P6SM SCT120 BKN200
     FM241500 15024G32KT P6SM BKN050
     FM242100 17016G24KT 5SM -SHRA SCT025 OVC040=

USA.gov is the U.S. government's official web portal to all federal, state and local government web resources and services.